MPEC 2006-V06 : 2006 UQ217

The following Minor Planet Electronic Circular may be linked-to from your own Web pages, but must not otherwise be redistributed electronically.


Read MPEC 2006-V05 Read MPEC 2006-V07


M.P.E.C. 2006-V06                                Issued 2006 Nov. 1, 13:46 UT

     The Minor Planet Electronic Circulars contain information on unusual
         minor planets and routine data on comets.  They are published
   on behalf of Commission 20 of the International Astronomical Union by the
          Minor Planet Center, Smithsonian Astrophysical Observatory,
                          Cambridge, MA 02138, U.S.A.

             Prepared using the Tamkin Foundation Computer Network

                              MPC@CFA.HARVARD.EDU
          URL http://cfa-www.harvard.edu/iau/mpc.html  ISSN 1523-6714

                                  2006 UQ217

Observations:
     K06UL7Q* C2006 10 31.36493 05 14 00.34 +05 38 45.8          19.3 V EV006703
     K06UL7Q  C2006 10 31.36814 05 14 00.06 +05 38 47.6          19.6 V EV006703
     K06UL7Q  C2006 10 31.37135 05 13 59.84 +05 38 47.9          20.1 V EV006703
     K06UL7Q  C2006 10 31.37456 05 13 59.70 +05 38 49.7          19.0 V EV006703
     K06UL7Q  C2006 10 31.38730 05 13 58.80 +05 38 53.9          19.5 V EV006703
     K06UL7Q  C2006 10 31.39207 05 13 58.47 +05 38 56.9          19.1 V EV006703
     K06UL7Q  C2006 10 31.39876 05 13 58.04 +05 38 59.8          18.9 V EV006703
     K06UL7Q  C2006 10 31.40354 05 13 57.75 +05 39 00.1          19.2 V EV006703
     K06UL7Q  C2006 11 01.05805 05 13 15.70 +05 43 06.4                 EV006J95
     K06UL7Q  C2006 11 01.06138 05 13 15.31 +05 43 07.7          19.0 R EV006585
     K06UL7Q  C2006 11 01.06230 05 13 15.41 +05 43 08.0                 EV006J95
     K06UL7Q  C2006 11 01.06652 05 13 15.10 +05 43 09.7          19.4 R EV006J95
     K06UL7Q  C2006 11 01.06749 05 13 14.91 +05 43 09.7          19.1 R EV006585
     K06UL7Q  C2006 11 01.07361 05 13 14.46 +05 43 12.4          19.0 R EV006585
     K06UL7Q  C2006 11 01.07973 05 13 14.00 +05 43 14.9          18.9 R EV006585
     K06UL7Q  C2006 11 01.23354 05 13 04.43 +05 44 15.1          19.5 R EV006734
     K06UL7Q  C2006 11 01.23647 05 13 04.22 +05 44 16.0          19.6 R EV006734
     K06UL7Q  C2006 11 01.24086 05 13 03.91 +05 44 17.6          18.9 R EV006734
     K06UL7Q  C2006 11 01.24108 05 13 03.89 +05 44 16.8          19.8 R EV006H36
     K06UL7Q  C2006 11 01.25136 05 13 03.25 +05 44 22.2          19.1 R EV006H36
     K06UL7Q  C2006 11 01.26165 05 13 02.58 +05 44 25.7          19.2 R EV006H36
     K06UL7Q  C2006 11 01.30330 05 12 59.88 +05 44 42.2          19.8 R EV006854
     K06UL7Q  C2006 11 01.30804 05 12 59.55 +05 44 44.7          19.7 R EV006854
     K06UL7Q  C2006 11 01.31278 05 12 59.19 +05 44 45.9          19.7 R EV006854
     K06UL7Q  C2006 11 01.37347 05 12 55.04 +05 45 09.9          19.7 V EV006703
     K06UL7Q  C2006 11 01.38053 05 12 54.54 +05 45 12.2          19.6 V EV006703
     K06UL7Q  C2006 11 01.38759 05 12 54.07 +05 45 14.7          19.2 V EV006703
     K06UL7Q  C2006 11 01.39469 05 12 53.56 +05 45 17.4          19.6 V EV006703
     K06UL7Q 5C2006 11 01.42164 05 12 51.82 +05 45 27.9          19.5 R EV006673
     K06UL7Q 5C2006 11 01.43877 05 12 50.63 +05 45 34.2                 EV006673
     K06UL7Q 5C2006 11 01.44398 05 12 50.30 +05 45 36.4                 EV006673
     K06UL7Q 5C2006 11 01.45324 05 12 49.66 +05 45 40.0                 EV006673
     K06UL7Q  C2006 11 01.46331 05 12 49.22 +05 45 50.4          19.5 V EV006F84
     K06UL7Q  C2006 11 01.47910 05 12 48.10 +05 45 56.0                 EV006F84

Observer details:
585 Kiev comet station.  Observer A. Baransky.  0.7-m f/4 reflector + CCD.
673 Table Mountain Observatory, Wrightwood.  Observer J. Young.  0.61-m f/16
    Cassegrain + CCD.
703 Catalina Sky Survey.  Observer R. E. Hill.  Measurers E. C. Beshore,
    E. J. Christensen, G. J. Garradd, A. R. Gibbs, A. D. Grauer, R. E. Hill,
    R. A. Kowalski, S. M. Larson, R. H. McNaught.  0.68-m Schmidt + CCD.
734 Farpoint Observatory.  Observer D. Tibbets.  0.7-m reflector + CCD.
854 Sabino Canyon Observatory, Tucson.  Observer J. E. McGaha.  0.36-m f/10.0
    Schmidt-Cassegrain + CCD.
F84 Hibiscus Observatory, Punaauia.  Observer N. Teamo.  Measurer J. C. Pelle.
    0.35-m f/3.88 Schmidt-Cassegrain + 1392x1040 CCD.
H36 Sandlot Observatory, Scranton.  Observer G. Hug.  0.30-m
    Schmidt-Cassegrain + CCD.
J95 Great Shefford.  Observer P. Birtwhistle.  0.40-m f/6.0 Schmidt-Cassegrain
    + CCD.

Orbital elements:
2006 UQ217                                               Earth MOID = 0.3573 AU
Epoch 2006 Sept. 22.0 TT = JDT 2454000.5                MPC
M  25.61258              (2000.0)            P               Q
n   0.22542210     Peri.  238.41908     +0.74040292     +0.56208336
a   2.6738583      Node    84.77375     -0.41920116     +0.81480240
e   0.5327275      Incl.   21.72416     -0.52542736     +0.14198357
P   4.37           H   16.8           G   0.15           U   9
Residuals in seconds of arc
061031 703  0.7+  0.2-    061101 585  0.5+  0.5-    061101 703  0.2-  0.5+
061031 703  0.3-  0.4+    061101 585  0.1-  0.1-    061101 703  0.5-  0.1+
061031 703  0.4-  0.5-    061101 585  0.8-  0.1+    061101 703  0.3-  0.1-
061031 703  0.7+  0.1+    061101 734  0.1-  0.4+    061101 703  0.6-  0.1-
061031 703  0.2-  0.5-    061101 734  0.3-  0.2+    061101 673  0.2+  0.2+
061031 703  0.4-  0.7+    061101 734  0.5-  0.1+    061101 673  0.0   0.1-
061031 703  0.2-  1.0+    061101 H36  0.6-  0.8-    061101 673  0.4+  0.1+
061031 703  0.2+  0.5-    061101 H36  0.2+  0.6+    061101 673  0.3+  0.2+
061101 J95  0.2+  0.1-    061101 H36  0.5+  0.1+    061101 F84  0.3+  0.0
061101 585  0.4+  0.2-    061101 854  0.7+  0.1-    061101 F84  0.2-  0.5-
061101 J95  0.1+  0.1-    061101 854  0.5+  0.6+
061101 J95  0.3-  0.0     061101 854  0.0   0.1-

Ephemeris:
2006 UQ217               a,e,i = 2.67, 0.53, 22                  q = 1.2494
Date    TT    R. A. (2000) Decl.     Delta      r     Elong.  Phase     V
2006 11 01    05 13.32   +05 42.8    1.145    1.993   137.5    19.7    19.6
2006 11 11    05 00.84   +06 53.4    1.143    2.059   149.6    14.1    19.5
2006 11 21    04 46.01   +08 16.7    1.165    2.124   161.2     8.6    19.4
2006 12 01    04 30.64   +09 48.8    1.214    2.189   168.1     5.3    19.4
2006 12 11    04 16.63   +11 24.6    1.294    2.253   162.7     7.5    19.7
2006 12 21    04 05.34   +12 59.8    1.401    2.316   152.0    11.5    20.1
2006 12 31    03 57.54   +14 31.9    1.533    2.378   140.9    15.1    20.4
2007 01 10    03 53.36   +15 59.8    1.686    2.439   130.2    17.9    20.8
2007 01 20    03 52.57   +17 23.0    1.855    2.499   120.2    19.9    21.1
2007 01 30    03 54.77   +18 41.9    2.036    2.558   110.9    21.1    21.4
2007 02 09    03 59.49   +19 56.4    2.225    2.616   102.1    21.6    21.7
2007 02 19    04 06.32   +21 06.4    2.419    2.673    93.8    21.7    21.9

Timothy B. Spahr             (C) Copyright 2006 MPC           M.P.E.C. 2006-V06

Read MPEC 2006-V05 Read MPEC 2006-V07


Our Web policy. Index to the CBAT/MPC/ICQ pages.

MPC

Valid HTML 4.01!